Change the Weather History Date:

Tuesday, July 1, 2014

  Actual Average Record
Temperature  
Mean Temperature 78 °F 80 °F  
Max Temperature 88 °F 92 °F 114 °F (1913)
Min Temperature 67 °F 68 °F 53 °F (1918)
Degree Days  
Heating Degree Days 0 0  
Month to date heating degree days 0 0  
Since 1 June heating degree days 1 7  
Since 1 July heating degree days 0 0  
Cooling Degree Days 13 15  
Month to date cooling degree days 13 15  
Year to date cooling degree days 602 468  
Since 1 June cooling degree days 370 340  
Growing Degree Days 27 (Base 50)    
Moisture  
Dew Point 58 °F    
Average Humidity 60    
Maximum Humidity 87    
Minimum Humidity 32    
Precipitation  
Precipitation 0.01 in 0.15 in 2.20 in (1993)
Month to date precipitation 0.01 0.15  
Year to date precipitation 15.59 16.25  
Sea Level Pressure  
Sea Level Pressure 29.94 in    
Wind  
Wind Speed 9 mph (WNW)    
Max Wind Speed 23 mph    
Max Gust Speed 28 mph    
Visibility 10 miles    
Events      
T = Trace of Precipitation, MM = Missing Value Source: NWS Daily Summary

Daily Weather History Graph

Daily Weather History Graph

Search for Another Location

Airport or City:

Trip Planner

Search our weather history database for the weather conditions in past years. The results will help you decide how hot, cold, wet, or windy it might be!

Date:

Astronomy

Jul. 01, 2014 Rise Set
Actual Time 6:09 AM CDT 8:59 PM CDT
Civil Twilight 5:37 AM CDT 9:31 PM CDT
Nautical Twilight 4:57 AM CDT 10:11 PM CDT
Astronomical Twilight 4:11 AM CDT 10:57 PM CDT
Moon 10:15 AM CDT (7/1) 11:26 PM CDT (7/1)
Length of Visible Light 15h 53m
Length of Day
14h 50m
Waxing Crescent, 17% of the Moon is Illuminated
Jul 1
Waxing Crescent
Jul 5
First Quarter
Jul 12
Full
Jul 18
Last Quarter
Jul 26
New

Hourly Weather History & Observations

Time (CDT) Temp. Heat Index Dew Point Humidity Pressure Visibility Wind Dir Wind Speed Gust Speed Precip Events Conditions
12:53 AM 71.1 °F - 63.0 °F 75% 29.85 in 10.0 mi SSW 3.5 mph - N/A   Partly Cloudy
1:53 AM 71.1 °F - 63.0 °F 75% 29.90 in 10.0 mi SW 6.9 mph - N/A   Scattered Clouds
2:53 AM 70.0 °F - 64.0 °F 81% 29.94 in 10.0 mi SW 8.1 mph - 0.00 in   Mostly Cloudy
3:53 AM 70.0 °F - 64.9 °F 84% 29.89 in 10.0 mi SSW 12.7 mph - 0.01 in   Partly Cloudy
4:53 AM 69.1 °F - 64.9 °F 87% 29.89 in 10.0 mi SSW 4.6 mph - N/A   Clear
5:53 AM 68.0 °F - 63.0 °F 84% 29.90 in 10.0 mi North 4.6 mph - N/A   Clear
6:53 AM 66.9 °F - 63.0 °F 87% 29.91 in 10.0 mi NW 5.8 mph - N/A   Clear
7:53 AM 68.0 °F - 61.0 °F 78% 29.93 in 10.0 mi NNW 5.8 mph - N/A   Clear
8:53 AM 73.0 °F - 61.0 °F 66% 29.97 in 10.0 mi WNW 5.8 mph - N/A   Clear
9:53 AM 75.9 °F - 55.9 °F 50% 29.98 in 10.0 mi Calm Calm - N/A   Clear
10:53 AM 78.1 °F - 54.0 °F 43% 29.97 in 10.0 mi NNW 3.5 mph - N/A   Clear
11:53 AM 80.1 °F 80.0 °F 54.0 °F 40% 29.97 in 10.0 mi Variable 3.5 mph - N/A   Clear
12:53 PM 82.0 °F 81.6 °F 55.9 °F 41% 29.97 in 10.0 mi WSW 6.9 mph - N/A   Clear
1:53 PM 84.0 °F 83.0 °F 55.9 °F 38% 29.95 in 3.0 mi West 10.4 mph - N/A   Haze
2:53 PM 87.1 °F 85.7 °F 55.9 °F 35% 29.93 in 5.0 mi West 8.1 mph 20.7 mph N/A   Haze
3:53 PM 88.0 °F 86.7 °F 57.0 °F 35% 29.91 in 10.0 mi West 12.7 mph - N/A   Clear
4:53 PM 87.1 °F 85.7 °F 55.9 °F 35% 29.91 in 10.0 mi West 9.2 mph - N/A   Clear
5:53 PM 88.0 °F 86.5 °F 55.9 °F 34% 29.90 in 10.0 mi WNW 11.5 mph - N/A   Clear
6:53 PM 86.0 °F 84.2 °F 54.0 °F 33% 29.91 in 9.0 mi NNW 18.4 mph - N/A   Partly Cloudy
7:53 PM 82.0 °F 81.3 °F 54.0 °F 38% 29.93 in 10.0 mi NNW 16.1 mph - N/A   Clear
8:53 PM 75.9 °F - 55.0 °F 48% 29.95 in 10.0 mi North 11.5 mph - N/A   Clear
9:53 PM 73.9 °F - 54.0 °F 50% 29.99 in 10.0 mi North 13.8 mph - N/A   Clear
10:53 PM 72.0 °F - 53.1 °F 51% 30.04 in 10.0 mi NNE 15.0 mph - N/A   Clear
11:53 PM 70.0 °F - 51.1 °F 51% 30.06 in 10.0 mi NNE 9.2 mph - N/A   Clear